カタログに戻る

COSMOS 2251 DEB

運用中LEO
NORAD 36437·DEBRIS·🇷🇺 Russia

打ち上げ Jun 16, 1993 から Plesetsk Cosmodrome

Loading…

次のパス (今後24時間)

TLE

最新Source: Space-Track

元期: Sep 14, 2026, 13:45 UTC

1 36437U 93036BAL 26257.57358352  .00006286  00000-0  93248-3 0  9995
2 36437  73.9397 213.2716 0018891   3.4865 356.6436 14.75155992701131

AllMySatでCOSMOS 2251 DEBをリアルタイム追跡

Download on the App Store